BWA225 TLPC-TTPP

Flight info

Callsign BWA225
Flight time N/A
Altitude 16000
Route NAPKO DCT LEXOR DCT TALUS
Aircraft AT76/M-SDFGIRY/S

Departure

Time 2026-04-20 23:32
Airport George F. L. Charles Airport (TLPC)

Arrival

Time N/A
Airport Piarco International Airport (TTPP)
Time Latitude Longitude Altitude Speed Heading
2026-04-20 23:22 14.02013 -60.99555 55 ft 0 kts 157°
2026-04-20 23:28 14.02006 -60.99550 50 ft 3 kts 137°
2026-04-20 23:29 14.01996 -60.99522 53 ft 6 kts 106°
2026-04-20 23:29 14.01981 -60.99471 53 ft 10 kts 111°
2026-04-20 23:29 14.01981 -60.99395 50 ft 12 kts 73°
2026-04-20 23:29 14.02010 -60.99300 52 ft 15 kts 75°
2026-04-20 23:30 14.02045 -60.99174 54 ft 20 kts 75°
2026-04-20 23:30 14.02085 -60.99023 56 ft 23 kts 73°
2026-04-20 23:30 14.02130 -60.98854 56 ft 26 kts 77°
2026-04-20 23:30 14.02150 -60.98739 51 ft 2 kts 27°
2026-04-20 23:31 14.02160 -60.98752 51 ft 7 kts 295°
2026-04-20 23:31 14.02130 -60.98876 55 ft 33 kts 252°
2026-04-20 23:31 14.02030 -60.99248 53 ft 79 kts 250°
2026-04-20 23:31 14.01823 -60.99989 66 ft 132 kts 255°
2026-04-20 23:32 14.01565 -61.00953 435 ft 149 kts 254°
2026-04-20 23:32 14.01225 -61.01941 1064 ft 146 kts 242°
2026-04-20 23:32 14.00674 -61.02855 1547 ft 155 kts 226°
2026-04-20 23:32 13.99800 -61.03461 2219 ft 146 kts 189°
2026-04-20 23:33 13.98775 -61.03599 2662 ft 155 kts 187°
2026-04-20 23:33 13.97704 -61.03898 3111 ft 164 kts 192°
2026-04-20 23:33 13.96629 -61.04060 3693 ft 149 kts 159°
2026-04-20 23:33 13.95610 -61.03859 4250 ft 152 kts 183°
2026-04-20 23:34 13.94552 -61.04179 4522 ft 171 kts 191°
2026-04-20 23:34 13.93327 -61.04295 4748 ft 185 kts 188°
2026-04-20 23:34 13.92238 -61.05018 5005 ft 195 kts 218°
2026-04-20 23:34 13.91155 -61.06046 4927 ft 230 kts 225°
2026-04-20 23:35 13.90044 -61.07222 5384 ft 228 kts 224°
2026-04-20 23:35 13.88404 -61.08852 6448 ft 205 kts 223°
2026-04-20 23:35 13.88248 -61.09000 6589 ft 197 kts 222°
2026-04-20 23:36 13.87228 -61.09780 7588 ft 173 kts 206°
2026-04-20 23:36 13.86056 -61.10133 7931 ft 179 kts 202°
2026-04-20 23:36 13.85652 -61.10416 7902 ft 191 kts 238°